Tracking 28790 objects as of 19-Apr-2024
HD Live streaming from Space Station
objects crossing your sky now

IRIDIUM 33 DEB

Track IRIDIUM 33 DEB now!
10-day predictions


NORAD ID: 35926
Int'l Code: 1997-051UK
Perigee: 433.9 km
Apogee: 459.7 km
Inclination: 86.3 °
Period: 93.4 minutes
Semi major axis: 6817 km
RCS: 0.0076 m2 (small)
Launch date: September 14, 1997
Source: United States (US)
Launch site: TYURATAM MISSILE AND SPACE COMPLEX (TTMTR)

Note: This is SATELLITE DEBRIS
Your satellite tracking list
Your tracking list is empty




NASA's NSSDC Master Catalog

Two Line Element Set (TLE):
1 35926U 97051UK  24108.00252529  .00997547  00000-0  21160-1 0  9999
2 35926  86.3192 212.5874 0018902 260.5916  99.3202 15.42176281785534
Source of the keplerian elements: AFSPC